Radiation Dose measured at exhaust stack monitor of Fukushima Daiichi Nuclear Power Station
Date,Time,Unit 5 6 shared exhaust cylinders,Wind Direction,Wind Velocity(m/s)
2024/07/09,00:00,3.6,south,5.2
2024/07/09,00:10,3.6,south-southwest,3.6
2024/07/09,00:20,3.7,south-southwest,3.2
2024/07/09,00:30,3.7,south-southwest,3.4
2024/07/09,00:40,3.7,south,3.4
2024/07/09,00:50,3.6,south-southwest,2.6
2024/07/09,01:00,3.5,south-southwest,2.9
2024/07/09,01:10,3.5,west-southwest,3.2
2024/07/09,01:20,3.5,southwest,2.5
2024/07/09,01:30,3.6,west-southwest,3.8
2024/07/09,01:40,3.7,southwest,4.5
2024/07/09,01:50,3.7,south-southwest,5.3
2024/07/09,02:00,3.6,southwest,6.4
2024/07/09,02:10,3.5,south-southwest,6.2
2024/07/09,02:20,3.6,southwest,5.4
2024/07/09,02:30,3.7,southwest,4.4
2024/07/09,02:40,3.7,west-southwest,3.6
2024/07/09,02:50,3.7,west-southwest,5.3
2024/07/09,03:00,3.5,west-southwest,4.3
2024/07/09,03:10,3.7,south,2.6
2024/07/09,03:20,3.6,south-southeast,2.3
2024/07/09,03:30,3.5,southeast,3.4
2024/07/09,03:40,3.5,south-southeast,3.6
2024/07/09,03:50,3.7,south-southeast,4.6
2024/07/09,04:00,3.5,south-southeast,6.3
2024/07/09,04:10,3.6,south-southeast,6.1
2024/07/09,04:20,3.6,south,5.8
2024/07/09,04:30,3.4,south-southeast,6.8
2024/07/09,04:40,3.6,south,6.9
2024/07/09,04:50,3.6,south,6.6
2024/07/09,05:00,3.7,south,5.5
2024/07/09,05:10,3.5,south,5.4
2024/07/09,05:20,3.6,south,4.9
2024/07/09,05:30,3.6,south-southeast,5.1
2024/07/09,05:40,3.6,south,5.4
2024/07/09,05:50,3.7,south,4.4
2024/07/09,06:00,3.6,south,4.8
2024/07/09,06:10,3.6,south-southeast,4.7
2024/07/09,06:20,3.4,south,2.6
2024/07/09,06:30,3.6,south,4.0
2024/07/09,06:40,3.5,south,4.8
2024/07/09,06:50,3.6,south-southwest,2.3
2024/07/09,07:00,3.7,southwest,1.5
2024/07/09,07:10,3.8,south-southwest,3.0
2024/07/09,07:20,3.7,south-southwest,3.4
2024/07/09,07:30,3.7,south-southwest,4.3
2024/07/09,07:40,3.6,south,4.3
2024/07/09,07:50,3.5,south,4.1
2024/07/09,08:00,3.7,south-southeast,3.1
2024/07/09,08:10,3.6,south,4.2
2024/07/09,08:20,3.7,south,4.5
2024/07/09,08:30,3.7,south,2.5
2024/07/09,08:40,3.4,south-southwest,1.7
2024/07/09,08:50,3.6,south,1.5
2024/07/09,09:00,3.7,south,2.3
2024/07/09,09:10,3.4,south,2.2
2024/07/09,09:20,3.6,south,1.5
2024/07/09,09:30,3.5,south-southeast,0.9
2024/07/09,09:40,3.7,southeast,1.1
2024/07/09,09:50,3.7,southeast,2.6
2024/07/09,10:00,3.6,southeast,3.6
2024/07/09,10:10,3.6,southeast,2.5
2024/07/09,10:20,3.5,southeast,2.3
2024/07/09,10:30,3.6,south-southeast,3.1
2024/07/09,10:40,3.5,south-southwest,0.6
2024/07/09,10:50,3.7,east,0.6
2024/07/09,11:00,3.6,southeast,2.0
2024/07/09,11:10,3.6,east-southeast,2.6
2024/07/09,11:20,3.4,southeast,2.0
2024/07/09,11:30,3.6,south-southeast,2.2
2024/07/09,11:40,3.6,south-southeast,2.3
2024/07/09,11:50,3.8,north,0.9
2024/07/09,12:00,3.6,north-northwest,2.6
2024/07/09,12:10,3.7,northeast,2.6
2024/07/09,12:20,3.5,northeast,3.7
2024/07/09,12:30,3.6,north,1.1
2024/07/09,12:40,3.7,north-northwest,3.7
2024/07/09,12:50,3.5,north-northwest,3.5
2024/07/09,13:00,3.7,north-northwest,2.0
2024/07/09,13:10,3.6,north,2.5
2024/07/09,13:20,3.6,west-northwest,0.9
2024/07/09,13:30,3.5,-,CALM
2024/07/09,13:40,3.5,northwest,1.1
2024/07/09,13:50,3.6,north-northwest,2.3
2024/07/09,14:00,3.7,north-northwest,2.5
2024/07/09,14:10,3.6,north,1.7
2024/07/09,14:20,3.7,northeast,1.4
2024/07/09,14:30,3.8,east,0.6
2024/07/09,14:40,3.6,east-southeast,0.8
2024/07/09,14:50,3.7,-,CALM
2024/07/09,15:00,3.6,-,CALM
2024/07/09,15:10,3.6,south,0.9
2024/07/09,15:20,3.5,southwest,0.9
2024/07/09,15:30,3.6,southwest,1.5
2024/07/09,15:40,3.6,west-southwest,2.3
2024/07/09,15:50,3.6,southwest,1.2
2024/07/09,16:00,3.6,south-southwest,0.9
2024/07/09,16:10,3.6,southwest,0.6
2024/07/09,16:20,3.6,southwest,1.2
2024/07/09,16:30,3.5,west,2.9
2024/07/09,16:40,3.6,west-southwest,2.6
2024/07/09,16:50,3.6,west-northwest,3.2
2024/07/09,17:00,3.5,west-northwest,3.7
2024/07/09,17:10,3.5,west,4.4
2024/07/09,17:20,3.5,west-northwest,6.7
2024/07/09,17:30,3.6,west-northwest,4.1
2024/07/09,17:40,3.6,northwest,2.8
2024/07/09,17:50,3.5,west-northwest,6.3
2024/07/09,18:00,3.5,west-northwest,7.7
2024/07/09,18:10,3.6,west-northwest,8.6
2024/07/09,18:20,3.7,west-northwest,7.7
2024/07/09,18:30,3.7,west-northwest,5.1
2024/07/09,18:40,3.5,west,3.9
2024/07/09,18:50,3.6,west-northwest,4.0
2024/07/09,19:00,3.7,west,3.4
2024/07/09,19:10,3.5,west,5.1
2024/07/09,19:20,3.5,west,4.9
2024/07/09,19:30,3.5,west,3.6
2024/07/09,19:40,3.7,west,2.6
2024/07/09,19:50,3.8,west,1.7
2024/07/09,20:00,3.5,east,1.7
2024/07/09,20:10,3.9,east-northeast,2.3
2024/07/09,20:20,3.5,north,2.0
2024/07/09,20:30,3.6,north-northeast,2.8
2024/07/09,20:40,3.7,north,3.1
2024/07/09,20:50,3.7,northwest,2.5
2024/07/09,21:00,3.6,north-northwest,1.7
2024/07/09,21:10,3.6,north,4.0
2024/07/09,21:20,3.7,north,2.6
2024/07/09,21:30,3.6,south,0.9
2024/07/09,21:40,3.7,east-southeast,1.2
2024/07/09,21:50,3.6,east-northeast,0.9
2024/07/09,22:00,3.6,southwest,2.0
2024/07/09,22:10,3.5,west,3.1
2024/07/09,22:20,3.5,west,3.7
2024/07/09,22:30,3.7,west-southwest,2.0
2024/07/09,22:40,3.6,-,CALM
2024/07/09,22:50,3.7,south-southeast,2.5
2024/07/09,23:00,3.7,south-southwest,2.6
2024/07/09,23:10,3.7,south-southwest,2.0
2024/07/09,23:20,3.7,southwest,2.0
2024/07/09,23:30,3.4,southwest,2.5
2024/07/09,23:40,3.5,west-southwest,0.9
2024/07/09,23:50,3.7,west,1.7
